Cancun International Airp, Mexico

10:19 AM EST on August 27, 2016 (GMT -0500)
Cancun International

Weather History for MMUN - April, 2013

Change the Weather History Date:

Tuesday, April 16, 2013

  Actual Average Record
Temperature  
Mean Temperature 82 °F -  
Max Temperature 86 °F 85 °F 91 °F (1999)
Min Temperature 78 °F 67 °F 57 °F (2003)
Cooling Degree Days 17    
Growing Degree Days 32 (Base 50)    
Moisture  
Dew Point 74 °F    
Average Humidity 79    
Maximum Humidity 89    
Minimum Humidity 66    
Precipitation  
Precipitation 0.00 in - - ()
Sea Level Pressure  
Sea Level Pressure 29.96 in    
Wind  
Wind Speed 13 mph ()    
Max Wind Speed 23 mph    
Max Gust Speed 20 mph    
Visibility 7.0 miles    
Events      
Averages and records for this station are not official NWS values.
T = Trace of Precipitation, MM = Missing Value Source: Averaged Metar Reports

Daily Weather History Graph

Daily Weather History Graph

Search for Another Location

Airport or City:

Trip Planner

Search our weather history database for the weather conditions in past years. The results will help you decide how hot, cold, wet, or windy it might be!

Date:

Astronomy

Apr. 16, 2013 Rise Set
Actual Time 6:27 AM CDT 7:07 PM CDT
Civil Twilight 6:04 AM CDT 7:29 PM CDT
Nautical Twilight 5:38 AM CDT 7:56 PM CDT
Astronomical Twilight 5:11 AM CDT 8:23 PM CDT
Moon 11:04 AM CDT (4/16) No Moon Set
Length of Visible Light 13h 24m
Length of Day
12h 39m
Waxing Crescent, 33% of the Moon is Illuminated
Apr 16
Waxing Crescent
Apr 18
First Quarter
Apr 25
Full
May 2
Last Quarter
May 9
New

Hourly Weather History & Observations

Time (CDT) Temp. Heat Index Dew Point Humidity Pressure Visibility Wind Dir Wind Speed Gust Speed Precip Events Conditions
12:45 AM 78.8 °F - 73.4 °F 83% 29.90 in 7.0 mi SE 15.0 mph - N/A   Scattered Clouds
1:44 AM 78.8 °F - 75.2 °F 89% 29.93 in 7.0 mi SE 17.3 mph - N/A   Partly Cloudy
2:44 AM 78.8 °F - 73.4 °F 83% 29.92 in 7.0 mi SE 11.5 mph - N/A   Clear
3:47 AM 78.8 °F - 73.4 °F 83% 29.89 in 7.0 mi SE 17.3 mph - N/A   Clear
4:45 AM 78.8 °F - 73.4 °F 83% 29.91 in 7.0 mi ESE 12.7 mph - N/A   Clear
5:44 AM 78.8 °F - 73.4 °F 83% 29.93 in 7.0 mi ESE 8.1 mph 19.6 mph N/A   Partly Cloudy
6:43 AM 78.8 °F - 73.4 °F 83% 29.92 in 7.0 mi ESE 12.7 mph - N/A   Scattered Clouds
7:45 AM 80.6 °F 85.4 °F 73.4 °F 79% 29.98 in 7.0 mi ESE 18.4 mph - N/A   Scattered Clouds
8:44 AM 82.4 °F 89.5 °F 75.2 °F 79% 29.99 in 7.0 mi ESE 19.6 mph - N/A   Scattered Clouds
9:43 AM 84.2 °F 92.3 °F 75.2 °F 74% 30.00 in 7.0 mi SE 20.7 mph - N/A   Scattered Clouds
10:48 AM 86.0 °F 95.1 °F 75.2 °F 70% 30.01 in 7.0 mi SE 17.3 mph - N/A   Scattered Clouds
11:43 AM 84.2 °F 92.3 °F 75.2 °F 74% 30.01 in 7.0 mi SE 18.4 mph - N/A   Scattered Clouds
12:45 PM 86.0 °F 95.1 °F 75.2 °F 70% 29.99 in 7.0 mi SE 23.0 mph - N/A   Scattered Clouds
1:43 PM 86.0 °F 93.4 °F 73.4 °F 66% 29.96 in 7.0 mi SE 20.7 mph - N/A   Scattered Clouds
2:49 PM 86.0 °F 95.1 °F 75.2 °F 70% 29.95 in 7.0 mi SSE 17.3 mph - N/A   Mostly Cloudy
3:44 PM 84.2 °F 92.3 °F 75.2 °F 74% 29.94 in 7.0 mi SE 11.5 mph - N/A   Mostly Cloudy
4:42 PM 82.4 °F 89.5 °F 75.2 °F 79% 29.93 in 7.0 mi SE 13.8 mph - N/A   Mostly Cloudy
5:44 PM 82.4 °F 89.5 °F 75.2 °F 79% 29.95 in 7.0 mi ESE 12.7 mph - N/A   Mostly Cloudy
6:46 PM 80.6 °F 85.4 °F 73.4 °F 79% 29.96 in 7.0 mi ESE 11.5 mph - N/A   Scattered Clouds
7:43 PM 80.6 °F 85.4 °F 73.4 °F 79% 29.97 in 7.0 mi ESE 13.8 mph - N/A   Scattered Clouds
8:44 PM 80.6 °F 86.2 °F 75.2 °F 84% 29.99 in 7.0 mi ESE 8.1 mph - N/A   Scattered Clouds
9:46 PM 80.6 °F 86.2 °F 75.2 °F 84% 30.00 in 7.0 mi ESE 9.2 mph - N/A   Scattered Clouds
10:46 PM 78.8 °F - 73.4 °F 83% 30.01 in 7.0 mi ESE 11.5 mph - N/A   Scattered Clouds
11:47 PM 78.8 °F - 75.2 °F 89% 30.00 in 7.0 mi ESE 8.1 mph - N/A   Scattered Clouds